Location: Linz
(48.3300°N, 14.3000°E)
Time: 19:55:58
(UTC+01:00)

YUBILEINY - Pass Details

Date: 22 February 2019
Orbit: 1479 x 1508 km, 82.5° (Epoch: 22 March)

Event Time Altitude Azimuth Distance (km) Brightness Sun altitude
Rises 03:34:04 0° 155° (SSE) 4,588 ? -34.0°
Reaches altitude 10° 03:37:10 10° 148° (SSE) 3,612 ? -33.6°
Maximum altitude 03:44:54 38° 84° (E) 2,119 ? -32.4°
Drops below altitude 10° 03:52:40 10° 21° (NNE) 3,637 ? -31.2°
Sets 03:55:47 0° 14° (NNE) 4,624 ? -30.7°
